sep=,
ESTACION,FECHA,NIVEL(m),CAUDAL RIO(m³/s),CAUDAL CANAL(m³/s),CAUDAL TOTAL(m³/s),PLUVIOMETRIA(l/m²),TEMPERATURA AIRE(ºC),CONDUCTIVIDAD(µS/cm),pH,SOLIDOS EN SUSPENSION(mg/l),TEMPERATURA AGUA(ºC),TURBIDEZ(NTU),OXIGENO(mg/l),MATERIA ORGANICA(1/m),FOSFATOS(mg/l),AMONIO(mg/l)
AFORALEKUA,DATA,MAILA(m),IBAI EMARIA(m³/s),KANAL EMARIA(m³/s),EMARI TOTALA(m³/s),PLUBIOMETRIA(l/m²),HAIZE TENPERATURA(ºC),KONDUKTIBITATEA(µS/cm),pH,SOLIDO ESEKIAK(mg/l),UR TENPERATURA(ºC),UHERTASUNA(NTU),OXIGENOA(mg/l),MATERIA ORGANIKOA(1/m),FOSFATOAK(mg/l),AMONIOA(mg/l)
AGAUNTZA,1987-10-01,0.063,0.032,-,0.032,-,-,-,-,-,-,-,-,-,-,-
AGAUNTZA,1987-10-02,0.071,0.043,-,0.043,-,-,-,-,-,-,-,-,-,-,-
AGAUNTZA,1987-10-03,0.08,0.056,-,0.056,-,-,-,-,-,-,-,-,-,-,-
AGAUNTZA,1987-10-04,0.073,0.046,-,0.046,-,-,-,-,-,-,-,-,-,-,-
AGAUNTZA,1987-10-05,0.281,2.29,-,2.29,-,-,-,-,-,-,-,-,-,-,-
AGAUNTZA,1987-10-06,0.257,1.117,-,1.117,-,-,-,-,-,-,-,-,-,-,-
AGAUNTZA,1987-10-07,0.167,0.359,-,0.359,-,-,-,-,-,-,-,-,-,-,-
AGAUNTZA,1987-10-08,0.129,0.19,-,0.19,-,-,-,-,-,-,-,-,-,-,-
AGAUNTZA,1987-10-09,0.114,0.157,-,0.157,-,-,-,-,-,-,-,-,-,-,-
AGAUNTZA,1987-10-10,0.307,1.749,-,1.749,-,-,-,-,-,-,-,-,-,-,-
AGAUNTZA,1987-10-11,0.218,0.723,-,0.723,-,-,-,-,-,-,-,-,-,-,-
AGAUNTZA,1987-10-12,0.211,0.659,-,0.659,-,-,-,-,-,-,-,-,-,-,-
AGAUNTZA,1987-10-13,0.176,0.41,-,0.41,-,-,-,-,-,-,-,-,-,-,-
AGAUNTZA,1987-10-14,0.158,0.312,-,0.312,-,-,-,-,-,-,-,-,-,-,-
AGAUNTZA,1987-10-15,0.205,0.768,-,0.768,-,-,-,-,-,-,-,-,-,-,-
AGAUNTZA,1987-10-16,0.319,1.813,-,1.813,-,-,-,-,-,-,-,-,-,-,-
AGAUNTZA,1987-10-17,0.25,1.023,-,1.023,-,-,-,-,-,-,-,-,-,-,-
AGAUNTZA,1987-10-18,0.171,0.385,-,0.385,-,-,-,-,-,-,-,-,-,-,-
AGAUNTZA,1987-10-19,0.137,0.217,-,0.217,-,-,-,-,-,-,-,-,-,-,-
AGAUNTZA,1987-10-20,0.124,0.169,-,0.169,-,-,-,-,-,-,-,-,-,-,-
AGAUNTZA,1987-11-11,0.408,3.36,-,3.36,-,-,-,-,-,-,-,-,-,-,-
AGAUNTZA,1987-11-12,0.308,1.665,-,1.665,-,-,-,-,-,-,-,-,-,-,-
AGAUNTZA,1987-11-13,0.265,1.177,-,1.177,-,-,-,-,-,-,-,-,-,-,-
AGAUNTZA,1987-11-14,0.378,2.769,-,2.769,-,-,-,-,-,-,-,-,-,-,-
AGAUNTZA,1987-11-15,0.395,3.07,-,3.07,-,-,-,-,-,-,-,-,-,-,-
AGAUNTZA,1987-11-16,0.313,1.727,-,1.727,-,-,-,-,-,-,-,-,-,-,-
AGAUNTZA,1987-11-17,0.253,1.011,-,1.011,-,-,-,-,-,-,-,-,-,-,-
AGAUNTZA,1987-11-18,0.225,0.748,-,0.748,-,-,-,-,-,-,-,-,-,-,-
AGAUNTZA,1987-11-19,0.199,0.554,-,0.554,-,-,-,-,-,-,-,-,-,-,-
AGAUNTZA,1987-11-20,0.183,0.451,-,0.451,-,-,-,-,-,-,-,-,-,-,-
AGAUNTZA,1987-11-21,0.236,0.934,-,0.934,-,-,-,-,-,-,-,-,-,-,-
AGAUNTZA,1987-11-22,0.283,1.35,-,1.35,-,-,-,-,-,-,-,-,-,-,-
AGAUNTZA,1987-11-23,0.755,13.491,-,13.491,-,-,-,-,-,-,-,-,-,-,-
AGAUNTZA,1987-11-24,0.629,8.893,-,8.893,-,-,-,-,-,-,-,-,-,-,-
AGAUNTZA,1987-11-25,0.704,11.23,-,11.23,-,-,-,-,-,-,-,-,-,-,-
AGAUNTZA,1987-11-26,0.87,16.903,-,16.903,-,-,-,-,-,-,-,-,-,-,-
AGAUNTZA,1987-11-27,0.735,12.212,-,12.212,-,-,-,-,-,-,-,-,-,-,-
AGAUNTZA,1987-11-28,0.703,11.321,-,11.321,-,-,-,-,-,-,-,-,-,-,-
AGAUNTZA,1987-11-29,0.483,4.996,-,4.996,-,-,-,-,-,-,-,-,-,-,-
AGAUNTZA,1987-11-30,0.425,3.67,-,3.67,-,-,-,-,-,-,-,-,-,-,-
AGAUNTZA,1987-12-01,0.399,3.154,-,3.154,-,-,-,-,-,-,-,-,-,-,-
AGAUNTZA,1987-12-02,0.347,2.222,-,2.222,-,-,-,-,-,-,-,-,-,-,-
AGAUNTZA,1987-12-03,0.481,5.32,-,5.32,-,-,-,-,-,-,-,-,-,-,-
AGAUNTZA,1987-12-04,0.644,9.302,-,9.302,-,-,-,-,-,-,-,-,-,-,-
AGAUNTZA,1987-12-05,0.502,5.481,-,5.481,-,-,-,-,-,-,-,-,-,-,-
AGAUNTZA,1987-12-06,0.369,2.605,-,2.605,-,-,-,-,-,-,-,-,-,-,-
AGAUNTZA,1987-12-07,0.321,1.833,-,1.833,-,-,-,-,-,-,-,-,-,-,-
AGAUNTZA,1987-12-08,0.291,1.435,-,1.435,-,-,-,-,-,-,-,-,-,-,-
AGAUNTZA,1987-12-09,0.269,1.179,-,1.179,-,-,-,-,-,-,-,-,-,-,-
AGAUNTZA,1987-12-10,0.249,0.969,-,0.969,-,-,-,-,-,-,-,-,-,-,-
AGAUNTZA,1987-12-11,0.265,1.131,-,1.131,-,-,-,-,-,-,-,-,-,-,-
AGAUNTZA,1987-12-12,0.278,1.285,-,1.285,-,-,-,-,-,-,-,-,-,-,-
AGAUNTZA,1987-12-13,0.287,1.379,-,1.379,-,-,-,-,-,-,-,-,-,-,-
AGAUNTZA,1987-12-14,0.299,1.529,-,1.529,-,-,-,-,-,-,-,-,-,-,-
AGAUNTZA,1987-12-15,0.281,1.319,-,1.319,-,-,-,-,-,-,-,-,-,-,-
AGAUNTZA,1987-12-16,0.257,1.047,-,1.047,-,-,-,-,-,-,-,-,-,-,-
AGAUNTZA,1987-12-17,0.238,0.866,-,0.866,-,-,-,-,-,-,-,-,-,-,-
AGAUNTZA,1987-12-18,0.217,0.685,-,0.685,-,-,-,-,-,-,-,-,-,-,-
AGAUNTZA,1987-12-19,0.199,0.556,-,0.556,-,-,-,-,-,-,-,-,-,-,-
AGAUNTZA,1987-12-20,0.186,0.469,-,0.469,-,-,-,-,-,-,-,-,-,-,-
AGAUNTZA,1987-12-21,0.176,0.408,-,0.408,-,-,-,-,-,-,-,-,-,-,-
AGAUNTZA,1987-12-22,0.168,0.364,-,0.364,-,-,-,-,-,-,-,-,-,-,-
AGAUNTZA,1987-12-23,0.164,0.342,-,0.342,-,-,-,-,-,-,-,-,-,-,-
AGAUNTZA,1987-12-24,0.156,0.301,-,0.301,-,-,-,-,-,-,-,-,-,-,-
AGAUNTZA,1987-12-25,0.149,0.268,-,0.268,-,-,-,-,-,-,-,-,-,-,-
AGAUNTZA,1987-12-26,0.144,0.248,-,0.248,-,-,-,-,-,-,-,-,-,-,-
AGAUNTZA,1987-12-27,0.131,0.194,-,0.194,-,-,-,-,-,-,-,-,-,-,-
AGAUNTZA,1987-12-28,0.127,0.179,-,0.179,-,-,-,-,-,-,-,-,-,-,-
AGAUNTZA,1987-12-29,0.126,0.178,-,0.178,-,-,-,-,-,-,-,-,-,-,-
AGAUNTZA,1987-12-30,0.131,0.195,-,0.195,-,-,-,-,-,-,-,-,-,-,-
AGAUNTZA,1987-12-31,0.277,1.934,-,1.934,-,-,-,-,-,-,-,-,-,-,-
AGAUNTZA,1988-01-01,0.352,2.327,-,2.327,-,-,-,-,-,-,-,-,-,-,-
AGAUNTZA,1988-01-02,0.317,1.77,-,1.77,-,-,-,-,-,-,-,-,-,-,-
AGAUNTZA,1988-01-03,0.343,2.155,-,2.155,-,-,-,-,-,-,-,-,-,-,-
AGAUNTZA,1988-01-04,0.297,1.507,-,1.507,-,-,-,-,-,-,-,-,-,-,-
AGAUNTZA,1988-01-05,0.262,1.095,-,1.095,-,-,-,-,-,-,-,-,-,-,-
AGAUNTZA,1988-01-06,0.242,0.898,-,0.898,-,-,-,-,-,-,-,-,-,-,-
AGAUNTZA,1988-01-07,0.223,0.731,-,0.731,-,-,-,-,-,-,-,-,-,-,-
AGAUNTZA,1988-01-08,0.217,0.69,-,0.69,-,-,-,-,-,-,-,-,-,-,-
AGAUNTZA,1988-01-09,0.247,0.952,-,0.952,-,-,-,-,-,-,-,-,-,-,-
AGAUNTZA,1988-01-10,0.224,0.738,-,0.738,-,-,-,-,-,-,-,-,-,-,-
AGAUNTZA,1988-01-11,0.278,1.338,-,1.338,-,-,-,-,-,-,-,-,-,-,-
AGAUNTZA,1988-01-12,0.278,1.273,-,1.273,-,-,-,-,-,-,-,-,-,-,-
AGAUNTZA,1988-01-13,0.262,1.103,-,1.103,-,-,-,-,-,-,-,-,-,-,-
AGAUNTZA,1988-01-14,0.289,1.411,-,1.411,-,-,-,-,-,-,-,-,-,-,-
AGAUNTZA,1988-01-15,0.261,1.086,-,1.086,-,-,-,-,-,-,-,-,-,-,-
AGAUNTZA,1988-01-16,0.397,3.495,-,3.495,-,-,-,-,-,-,-,-,-,-,-
AGAUNTZA,1988-01-17,0.497,5.356,-,5.356,-,-,-,-,-,-,-,-,-,-,-
AGAUNTZA,1988-01-18,0.393,3.024,-,3.024,-,-,-,-,-,-,-,-,-,-,-
AGAUNTZA,1988-01-19,0.349,2.251,-,2.251,-,-,-,-,-,-,-,-,-,-,-
AGAUNTZA,1988-01-20,0.38,2.803,-,2.803,-,-,-,-,-,-,-,-,-,-,-
AGAUNTZA,1988-01-21,0.497,5.724,-,5.724,-,-,-,-,-,-,-,-,-,-,-
AGAUNTZA,1988-01-22,0.673,10.255,-,10.255,-,-,-,-,-,-,-,-,-,-,-
AGAUNTZA,1988-01-23,0.778,13.784,-,13.784,-,-,-,-,-,-,-,-,-,-,-
AGAUNTZA,1988-01-24,0.495,5.286,-,5.286,-,-,-,-,-,-,-,-,-,-,-
AGAUNTZA,1988-01-25,0.58,7.605,-,7.605,-,-,-,-,-,-,-,-,-,-,-
AGAUNTZA,1988-01-26,0.443,4.073,-,4.073,-,-,-,-,-,-,-,-,-,-,-
AGAUNTZA,1988-01-27,0.369,2.602,-,2.602,-,-,-,-,-,-,-,-,-,-,-
AGAUNTZA,1988-01-28,0.318,1.798,-,1.798,-,-,-,-,-,-,-,-,-,-,-
AGAUNTZA,1988-01-29,0.542,7.683,-,7.683,-,-,-,-,-,-,-,-,-,-,-
AGAUNTZA,1988-01-30,0.715,11.56,-,11.56,-,-,-,-,-,-,-,-,-,-,-
AGAUNTZA,1988-01-31,0.525,6.031,-,6.031,-,-,-,-,-,-,-,-,-,-,-
AGAUNTZA,1988-02-01,0.434,3.874,-,3.874,-,-,-,-,-,-,-,-,-,-,-
AGAUNTZA,1988-02-02,0.372,2.651,-,2.651,-,-,-,-,-,-,-,-,-,-,-
AGAUNTZA,1988-02-03,0.323,1.854,-,1.854,-,-,-,-,-,-,-,-,-,-,-
AGAUNTZA,1988-02-04,0.294,1.473,-,1.473,-,-,-,-,-,-,-,-,-,-,-
AGAUNTZA,1988-02-05,0.297,1.499,-,1.499,-,-,-,-,-,-,-,-,-,-,-
AGAUNTZA,1988-02-06,0.318,1.803,-,1.803,-,-,-,-,-,-,-,-,-,-,-
AGAUNTZA,1988-02-07,0.575,7.343,-,7.343,-,-,-,-,-,-,-,-,-,-,-
AGAUNTZA,1988-02-08,0.547,6.601,-,6.601,-,-,-,-,-,-,-,-,-,-,-
AGAUNTZA,1988-02-09,0.628,8.916,-,8.916,-,-,-,-,-,-,-,-,-,-,-
AGAUNTZA,1988-02-10,0.473,4.761,-,4.761,-,-,-,-,-,-,-,-,-,-,-
AGAUNTZA,1988-02-11,0.386,2.908,-,2.908,-,-,-,-,-,-,-,-,-,-,-
AGAUNTZA,1988-02-12,0.48,5.006,-,5.006,-,-,-,-,-,-,-,-,-,-,-
AGAUNTZA,1988-02-13,0.432,3.832,-,3.832,-,-,-,-,-,-,-,-,-,-,-
AGAUNTZA,1988-02-14,0.36,2.443,-,2.443,-,-,-,-,-,-,-,-,-,-,-
AGAUNTZA,1988-02-15,0.316,1.762,-,1.762,-,-,-,-,-,-,-,-,-,-,-
AGAUNTZA,1988-02-16,0.284,1.351,-,1.351,-,-,-,-,-,-,-,-,-,-,-
AGAUNTZA,1988-02-17,0.268,1.163,-,1.163,-,-,-,-,-,-,-,-,-,-,-
AGAUNTZA,1988-02-18,0.255,1.028,-,1.028,-,-,-,-,-,-,-,-,-,-,-
AGAUNTZA,1988-02-19,0.238,0.859,-,0.859,-,-,-,-,-,-,-,-,-,-,-
AGAUNTZA,1988-02-20,0.224,0.745,-,0.745,-,-,-,-,-,-,-,-,-,-,-
AGAUNTZA,1988-02-21,0.21,0.634,-,0.634,-,-,-,-,-,-,-,-,-,-,-
AGAUNTZA,1988-02-22,0.2,0.556,-,0.556,-,-,-,-,-,-,-,-,-,-,-
AGAUNTZA,1988-02-23,0.197,0.535,-,0.535,-,-,-,-,-,-,-,-,-,-,-
AGAUNTZA,1988-02-24,0.198,0.547,-,0.547,-,-,-,-,-,-,-,-,-,-,-
AGAUNTZA,1988-02-25,0.246,0.951,-,0.951,-,-,-,-,-,-,-,-,-,-,-
AGAUNTZA,1988-02-26,0.283,1.337,-,1.337,-,-,-,-,-,-,-,-,-,-,-
AGAUNTZA,1988-02-27,0.272,1.206,-,1.206,-,-,-,-,-,-,-,-,-,-,-
AGAUNTZA,1988-02-28,0.269,1.168,-,1.168,-,-,-,-,-,-,-,-,-,-,-
AGAUNTZA,1988-02-29,0.44,4.5,-,4.5,-,-,-,-,-,-,-,-,-,-,-
AGAUNTZA,1988-03-01,0.528,6.414,-,6.414,-,-,-,-,-,-,-,-,-,-,-
AGAUNTZA,1988-03-02,0.593,7.95,-,7.95,-,-,-,-,-,-,-,-,-,-,-
AGAUNTZA,1988-03-03,0.482,4.982,-,4.982,-,-,-,-,-,-,-,-,-,-,-
AGAUNTZA,1988-03-04,0.46,4.458,-,4.458,-,-,-,-,-,-,-,-,-,-,-
AGAUNTZA,1988-03-05,0.467,4.598,-,4.598,-,-,-,-,-,-,-,-,-,-,-
AGAUNTZA,1988-03-06,0.471,4.703,-,4.703,-,-,-,-,-,-,-,-,-,-,-
AGAUNTZA,1988-03-07,0.905,18.685,-,18.685,-,-,-,-,-,-,-,-,-,-,-
AGAUNTZA,1988-03-08,1.001,21.914,-,21.914,-,-,-,-,-,-,-,-,-,-,-
AGAUNTZA,1988-03-09,0.724,11.854,-,11.854,-,-,-,-,-,-,-,-,-,-,-
AGAUNTZA,1988-03-10,0.551,6.707,-,6.707,-,-,-,-,-,-,-,-,-,-,-
AGAUNTZA,1988-03-11,0.493,5.222,-,5.222,-,-,-,-,-,-,-,-,-,-,-
AGAUNTZA,1988-03-12,0.478,4.858,-,4.858,-,-,-,-,-,-,-,-,-,-,-
AGAUNTZA,1988-03-13,0.44,4.008,-,4.008,-,-,-,-,-,-,-,-,-,-,-
AGAUNTZA,1988-03-14,0.408,3.32,-,3.32,-,-,-,-,-,-,-,-,-,-,-
AGAUNTZA,1988-03-15,0.392,3.021,-,3.021,-,-,-,-,-,-,-,-,-,-,-
AGAUNTZA,1988-03-16,0.394,3.049,-,3.049,-,-,-,-,-,-,-,-,-,-,-
AGAUNTZA,1988-03-17,0.499,5.372,-,5.372,-,-,-,-,-,-,-,-,-,-,-
AGAUNTZA,1988-03-18,0.432,3.845,-,3.845,-,-,-,-,-,-,-,-,-,-,-
AGAUNTZA,1988-03-19,0.358,2.428,-,2.428,-,-,-,-,-,-,-,-,-,-,-
AGAUNTZA,1988-03-20,0.32,1.82,-,1.82,-,-,-,-,-,-,-,-,-,-,-
AGAUNTZA,1988-03-21,0.301,1.567,-,1.567,-,-,-,-,-,-,-,-,-,-,-
AGAUNTZA,1988-03-22,0.36,2.441,-,2.441,-,-,-,-,-,-,-,-,-,-,-
AGAUNTZA,1988-03-23,0.324,1.864,-,1.864,-,-,-,-,-,-,-,-,-,-,-
AGAUNTZA,1988-03-24,0.306,1.635,-,1.635,-,-,-,-,-,-,-,-,-,-,-
AGAUNTZA,1988-03-25,0.283,1.337,-,1.337,-,-,-,-,-,-,-,-,-,-,-
AGAUNTZA,1988-03-26,0.265,1.136,-,1.136,-,-,-,-,-,-,-,-,-,-,-
AGAUNTZA,1988-03-27,0.25,0.976,-,0.976,-,-,-,-,-,-,-,-,-,-,-
AGAUNTZA,1988-03-28,0.232,0.807,-,0.807,-,-,-,-,-,-,-,-,-,-,-
AGAUNTZA,1988-03-29,0.221,0.721,-,0.721,-,-,-,-,-,-,-,-,-,-,-
AGAUNTZA,1988-03-30,0.405,3.72,-,3.72,-,-,-,-,-,-,-,-,-,-,-
AGAUNTZA,1988-03-31,0.81,14.712,-,14.712,-,-,-,-,-,-,-,-,-,-,-
AGAUNTZA,1988-04-01,0.649,9.596,-,9.596,-,-,-,-,-,-,-,-,-,-,-
AGAUNTZA,1988-04-02,0.447,4.175,-,4.175,-,-,-,-,-,-,-,-,-,-,-
AGAUNTZA,1988-04-03,0.483,5.31,-,5.31,-,-,-,-,-,-,-,-,-,-,-
AGAUNTZA,1988-04-04,0.751,12.889,-,12.889,-,-,-,-,-,-,-,-,-,-,-
AGAUNTZA,1988-04-05,0.634,9.05,-,9.05,-,-,-,-,-,-,-,-,-,-,-
AGAUNTZA,1988-04-06,0.644,9.391,-,9.391,-,-,-,-,-,-,-,-,-,-,-
AGAUNTZA,1988-04-07,0.484,5.007,-,5.007,-,-,-,-,-,-,-,-,-,-,-
AGAUNTZA,1988-04-08,0.401,3.201,-,3.201,-,-,-,-,-,-,-,-,-,-,-
AGAUNTZA,1988-04-09,0.354,2.334,-,2.334,-,-,-,-,-,-,-,-,-,-,-
AGAUNTZA,1988-04-10,0.314,1.734,-,1.734,-,-,-,-,-,-,-,-,-,-,-
AGAUNTZA,1988-04-11,0.299,1.531,-,1.531,-,-,-,-,-,-,-,-,-,-,-
AGAUNTZA,1988-04-12,0.329,1.946,-,1.946,-,-,-,-,-,-,-,-,-,-,-
AGAUNTZA,1988-04-13,0.294,1.469,-,1.469,-,-,-,-,-,-,-,-,-,-,-
AGAUNTZA,1988-04-14,0.275,1.239,-,1.239,-,-,-,-,-,-,-,-,-,-,-
AGAUNTZA,1988-04-15,0.265,1.129,-,1.129,-,-,-,-,-,-,-,-,-,-,-
AGAUNTZA,1988-04-16,0.302,1.584,-,1.584,-,-,-,-,-,-,-,-,-,-,-
AGAUNTZA,1988-04-17,0.304,1.604,-,1.604,-,-,-,-,-,-,-,-,-,-,-
AGAUNTZA,1988-04-18,0.277,1.259,-,1.259,-,-,-,-,-,-,-,-,-,-,-
AGAUNTZA,1988-04-19,0.659,10.052,-,10.052,-,-,-,-,-,-,-,-,-,-,-
AGAUNTZA,1988-04-20,0.539,6.488,-,6.488,-,-,-,-,-,-,-,-,-,-,-
AGAUNTZA,1988-04-21,0.387,2.937,-,2.937,-,-,-,-,-,-,-,-,-,-,-
AGAUNTZA,1988-04-22,0.359,2.487,-,2.487,-,-,-,-,-,-,-,-,-,-,-
AGAUNTZA,1988-04-23,0.715,11.776,-,11.776,-,-,-,-,-,-,-,-,-,-,-
AGAUNTZA,1988-04-24,0.545,6.552,-,6.552,-,-,-,-,-,-,-,-,-,-,-
AGAUNTZA,1988-04-25,0.441,4.016,-,4.016,-,-,-,-,-,-,-,-,-,-,-
AGAUNTZA,1988-04-26,0.405,3.267,-,3.267,-,-,-,-,-,-,-,-,-,-,-
AGAUNTZA,1988-04-27,0.383,2.852,-,2.852,-,-,-,-,-,-,-,-,-,-,-
AGAUNTZA,1988-04-28,0.338,2.083,-,2.083,-,-,-,-,-,-,-,-,-,-,-
AGAUNTZA,1988-04-29,0.313,1.718,-,1.718,-,-,-,-,-,-,-,-,-,-,-
AGAUNTZA,1988-04-30,0.309,1.667,-,1.667,-,-,-,-,-,-,-,-,-,-,-
AGAUNTZA,1988-05-01,0.283,1.335,-,1.335,-,-,-,-,-,-,-,-,-,-,-
AGAUNTZA,1988-05-02,0.258,1.062,-,1.062,-,-,-,-,-,-,-,-,-,-,-
AGAUNTZA,1988-05-03,0.239,0.874,-,0.874,-,-,-,-,-,-,-,-,-,-,-
AGAUNTZA,1988-05-04,0.224,0.743,-,0.743,-,-,-,-,-,-,-,-,-,-,-
AGAUNTZA,1988-05-05,0.212,0.649,-,0.649,-,-,-,-,-,-,-,-,-,-,-
AGAUNTZA,1988-05-06,0.2,0.562,-,0.562,-,-,-,-,-,-,-,-,-,-,-
AGAUNTZA,1988-05-07,0.191,0.498,-,0.498,-,-,-,-,-,-,-,-,-,-,-
AGAUNTZA,1988-05-08,0.179,0.426,-,0.426,-,-,-,-,-,-,-,-,-,-,-
AGAUNTZA,1988-05-09,0.177,0.414,-,0.414,-,-,-,-,-,-,-,-,-,-,-
AGAUNTZA,1988-05-10,0.233,0.868,-,0.868,-,-,-,-,-,-,-,-,-,-,-
AGAUNTZA,1988-05-11,0.249,0.972,-,0.972,-,-,-,-,-,-,-,-,-,-,-
AGAUNTZA,1988-05-12,0.268,1.17,-,1.17,-,-,-,-,-,-,-,-,-,-,-
AGAUNTZA,1988-05-13,0.254,1.023,-,1.023,-,-,-,-,-,-,-,-,-,-,-
AGAUNTZA,1988-05-14,0.269,1.176,-,1.176,-,-,-,-,-,-,-,-,-,-,-
AGAUNTZA,1988-05-15,0.249,0.962,-,0.962,-,-,-,-,-,-,-,-,-,-,-
AGAUNTZA,1988-05-16,0.252,1.038,-,1.038,-,-,-,-,-,-,-,-,-,-,-
AGAUNTZA,1988-05-17,0.284,1.357,-,1.357,-,-,-,-,-,-,-,-,-,-,-
AGAUNTZA,1988-05-18,0.248,0.955,-,0.955,-,-,-,-,-,-,-,-,-,-,-
AGAUNTZA,1988-05-19,0.222,0.726,-,0.726,-,-,-,-,-,-,-,-,-,-,-
AGAUNTZA,1988-05-20,0.203,0.581,-,0.581,-,-,-,-,-,-,-,-,-,-,-
AGAUNTZA,1988-05-21,0.187,0.474,-,0.474,-,-,-,-,-,-,-,-,-,-,-
AGAUNTZA,1988-05-22,0.223,1.311,-,1.311,-,-,-,-,-,-,-,-,-,-,-
AGAUNTZA,1988-05-23,0.52,6.27,-,6.27,-,-,-,-,-,-,-,-,-,-,-
AGAUNTZA,1988-05-24,0.327,1.923,-,1.923,-,-,-,-,-,-,-,-,-,-,-
AGAUNTZA,1988-05-25,0.369,3.137,-,3.137,-,-,-,-,-,-,-,-,-,-,-
AGAUNTZA,1988-05-26,0.473,4.769,-,4.769,-,-,-,-,-,-,-,-,-,-,-
AGAUNTZA,1988-05-27,0.387,2.928,-,2.928,-,-,-,-,-,-,-,-,-,-,-
AGAUNTZA,1988-05-28,0.336,2.051,-,2.051,-,-,-,-,-,-,-,-,-,-,-
AGAUNTZA,1988-05-29,0.314,1.737,-,1.737,-,-,-,-,-,-,-,-,-,-,-
AGAUNTZA,1988-05-30,0.282,1.319,-,1.319,-,-,-,-,-,-,-,-,-,-,-
AGAUNTZA,1988-05-31,0.256,1.035,-,1.035,-,-,-,-,-,-,-,-,-,-,-
AGAUNTZA,1988-06-01,0.241,0.889,-,0.889,-,-,-,-,-,-,-,-,-,-,-
AGAUNTZA,1988-06-02,0.226,0.756,-,0.756,-,-,-,-,-,-,-,-,-,-,-
AGAUNTZA,1988-06-03,0.211,0.635,-,0.635,-,-,-,-,-,-,-,-,-,-,-
AGAUNTZA,1988-06-04,0.21,0.632,-,0.632,-,-,-,-,-,-,-,-,-,-,-
AGAUNTZA,1988-06-05,0.211,0.639,-,0.639,-,-,-,-,-,-,-,-,-,-,-
AGAUNTZA,1988-06-06,0.199,0.55,-,0.55,-,-,-,-,-,-,-,-,-,-,-
AGAUNTZA,1988-06-07,0.193,0.511,-,0.511,-,-,-,-,-,-,-,-,-,-,-
AGAUNTZA,1988-06-08,0.191,0.499,-,0.499,-,-,-,-,-,-,-,-,-,-,-
AGAUNTZA,1988-06-09,0.413,3.588,-,3.588,-,-,-,-,-,-,-,-,-,-,-
AGAUNTZA,1988-06-10,0.322,1.859,-,1.859,-,-,-,-,-,-,-,-,-,-,-
AGAUNTZA,1988-06-11,0.279,1.289,-,1.289,-,-,-,-,-,-,-,-,-,-,-
AGAUNTZA,1988-06-12,0.32,2.351,-,2.351,-,-,-,-,-,-,-,-,-,-,-
AGAUNTZA,1988-06-13,0.377,2.797,-,2.797,-,-,-,-,-,-,-,-,-,-,-
AGAUNTZA,1988-06-14,0.386,2.95,-,2.95,-,-,-,-,-,-,-,-,-,-,-
AGAUNTZA,1988-06-15,0.328,1.944,-,1.944,-,-,-,-,-,-,-,-,-,-,-
AGAUNTZA,1988-06-16,0.349,2.332,-,2.332,-,-,-,-,-,-,-,-,-,-,-
AGAUNTZA,1988-06-17,0.504,6.067,-,6.067,-,-,-,-,-,-,-,-,-,-,-
AGAUNTZA,1988-06-18,0.509,5.667,-,5.667,-,-,-,-,-,-,-,-,-,-,-
AGAUNTZA,1988-06-19,0.374,2.692,-,2.692,-,-,-,-,-,-,-,-,-,-,-
AGAUNTZA,1988-06-20,0.307,1.642,-,1.642,-,-,-,-,-,-,-,-,-,-,-
AGAUNTZA,1988-06-21,0.267,1.153,-,1.153,-,-,-,-,-,-,-,-,-,-,-
AGAUNTZA,1988-06-22,0.239,0.876,-,0.876,-,-,-,-,-,-,-,-,-,-,-
AGAUNTZA,1988-06-23,0.211,0.637,-,0.637,-,-,-,-,-,-,-,-,-,-,-
AGAUNTZA,1988-06-24,0.206,0.605,-,0.605,-,-,-,-,-,-,-,-,-,-,-
AGAUNTZA,1988-06-25,0.19,0.496,-,0.496,-,-,-,-,-,-,-,-,-,-,-
AGAUNTZA,1988-06-26,0.177,0.415,-,0.415,-,-,-,-,-,-,-,-,-,-,-
AGAUNTZA,1988-06-27,0.165,0.349,-,0.349,-,-,-,-,-,-,-,-,-,-,-
AGAUNTZA,1988-06-28,0.158,0.311,-,0.311,-,-,-,-,-,-,-,-,-,-,-
AGAUNTZA,1988-06-29,0.16,0.322,-,0.322,-,-,-,-,-,-,-,-,-,-,-
AGAUNTZA,1988-06-30,0.15,0.275,-,0.275,-,-,-,-,-,-,-,-,-,-,-
AGAUNTZA,1988-07-01,0.143,0.242,-,0.242,-,-,-,-,-,-,-,-,-,-,-
AGAUNTZA,1988-07-02,0.14,0.231,-,0.231,-,-,-,-,-,-,-,-,-,-,-
AGAUNTZA,1988-07-03,0.137,0.217,-,0.217,-,-,-,-,-,-,-,-,-,-,-
AGAUNTZA,1988-07-04,0.132,0.199,-,0.199,-,-,-,-,-,-,-,-,-,-,-
AGAUNTZA,1988-07-05,0.154,0.292,-,0.292,-,-,-,-,-,-,-,-,-,-,-
AGAUNTZA,1988-07-06,0.137,0.218,-,0.218,-,-,-,-,-,-,-,-,-,-,-
AGAUNTZA,1988-07-07,0.128,0.184,-,0.184,-,-,-,-,-,-,-,-,-,-,-
AGAUNTZA,1988-07-08,0.116,0.144,-,0.144,-,-,-,-,-,-,-,-,-,-,-
AGAUNTZA,1988-07-09,0.109,0.124,-,0.124,-,-,-,-,-,-,-,-,-,-,-
AGAUNTZA,1988-07-10,0.103,0.107,-,0.107,-,-,-,-,-,-,-,-,-,-,-
AGAUNTZA,1988-07-11,0.101,0.103,-,0.103,-,-,-,-,-,-,-,-,-,-,-
AGAUNTZA,1988-07-12,0.099,0.097,-,0.097,-,-,-,-,-,-,-,-,-,-,-
AGAUNTZA,1988-07-13,0.1,0.098,-,0.098,-,-,-,-,-,-,-,-,-,-,-
AGAUNTZA,1988-07-14,0.095,0.089,-,0.089,-,-,-,-,-,-,-,-,-,-,-
AGAUNTZA,1988-07-15,0.097,0.092,-,0.092,-,-,-,-,-,-,-,-,-,-,-
AGAUNTZA,1988-07-16,0.093,0.083,-,0.083,-,-,-,-,-,-,-,-,-,-,-
AGAUNTZA,1988-07-17,0.089,0.075,-,0.075,-,-,-,-,-,-,-,-,-,-,-
AGAUNTZA,1988-07-18,0.084,0.064,-,0.064,-,-,-,-,-,-,-,-,-,-,-
AGAUNTZA,1988-07-19,0.121,0.413,-,0.413,-,-,-,-,-,-,-,-,-,-,-
AGAUNTZA,1988-07-20,0.472,5.165,-,5.165,-,-,-,-,-,-,-,-,-,-,-
AGAUNTZA,1988-07-21,0.252,1.022,-,1.022,-,-,-,-,-,-,-,-,-,-,-
AGAUNTZA,1988-07-22,0.185,0.463,-,0.463,-,-,-,-,-,-,-,-,-,-,-
AGAUNTZA,1988-07-23,0.153,0.289,-,0.289,-,-,-,-,-,-,-,-,-,-,-
AGAUNTZA,1988-07-24,0.163,0.337,-,0.337,-,-,-,-,-,-,-,-,-,-,-
AGAUNTZA,1988-07-25,0.147,0.262,-,0.262,-,-,-,-,-,-,-,-,-,-,-
AGAUNTZA,1988-07-26,0.135,0.21,-,0.21,-,-,-,-,-,-,-,-,-,-,-
AGAUNTZA,1988-07-27,0.157,0.352,-,0.352,-,-,-,-,-,-,-,-,-,-,-
AGAUNTZA,1988-07-28,0.175,0.407,-,0.407,-,-,-,-,-,-,-,-,-,-,-
AGAUNTZA,1988-07-29,0.153,0.308,-,0.308,-,-,-,-,-,-,-,-,-,-,-
AGAUNTZA,1988-07-30,0.197,0.558,-,0.558,-,-,-,-,-,-,-,-,-,-,-
AGAUNTZA,1988-07-31,0.146,0.255,-,0.255,-,-,-,-,-,-,-,-,-,-,-
AGAUNTZA,1988-08-01,0.12,0.156,-,0.156,-,-,-,-,-,-,-,-,-,-,-
AGAUNTZA,1988-08-02,0.114,0.138,-,0.138,-,-,-,-,-,-,-,-,-,-,-
AGAUNTZA,1988-08-03,0.177,0.63,-,0.63,-,-,-,-,-,-,-,-,-,-,-
AGAUNTZA,1988-08-04,0.25,1.039,-,1.039,-,-,-,-,-,-,-,-,-,-,-
AGAUNTZA,1988-08-05,0.176,0.408,-,0.408,-,-,-,-,-,-,-,-,-,-,-
AGAUNTZA,1988-08-06,0.147,0.261,-,0.261,-,-,-,-,-,-,-,-,-,-,-
AGAUNTZA,1988-08-07,0.383,3.556,-,3.556,-,-,-,-,-,-,-,-,-,-,-
AGAUNTZA,1988-08-08,0.259,1.079,-,1.079,-,-,-,-,-,-,-,-,-,-,-
AGAUNTZA,1988-08-09,0.208,0.616,-,0.616,-,-,-,-,-,-,-,-,-,-,-
AGAUNTZA,1988-08-10,0.181,0.436,-,0.436,-,-,-,-,-,-,-,-,-,-,-
AGAUNTZA,1988-08-11,0.175,0.4,-,0.4,-,-,-,-,-,-,-,-,-,-,-
AGAUNTZA,1988-08-12,0.177,0.415,-,0.415,-,-,-,-,-,-,-,-,-,-,-
AGAUNTZA,1988-08-13,0.181,0.434,-,0.434,-,-,-,-,-,-,-,-,-,-,-
AGAUNTZA,1988-08-14,0.168,0.365,-,0.365,-,-,-,-,-,-,-,-,-,-,-
AGAUNTZA,1988-08-15,0.152,0.281,-,0.281,-,-,-,-,-,-,-,-,-,-,-
AGAUNTZA,1988-08-16,0.153,0.284,-,0.284,-,-,-,-,-,-,-,-,-,-,-
AGAUNTZA,1988-08-17,0.153,0.284,-,0.284,-,-,-,-,-,-,-,-,-,-,-
AGAUNTZA,1988-08-18,0.152,0.281,-,0.281,-,-,-,-,-,-,-,-,-,-,-
AGAUNTZA,1988-08-19,0.14,0.228,-,0.228,-,-,-,-,-,-,-,-,-,-,-
AGAUNTZA,1988-08-20,0.127,0.178,-,0.178,-,-,-,-,-,-,-,-,-,-,-
AGAUNTZA,1988-08-21,0.125,0.174,-,0.174,-,-,-,-,-,-,-,-,-,-,-
AGAUNTZA,1988-08-22,0.212,0.686,-,0.686,-,-,-,-,-,-,-,-,-,-,-
AGAUNTZA,1988-08-23,0.181,0.435,-,0.435,-,-,-,-,-,-,-,-,-,-,-
AGAUNTZA,1988-08-24,0.155,0.297,-,0.297,-,-,-,-,-,-,-,-,-,-,-
AGAUNTZA,1988-08-25,0.155,0.297,-,0.297,-,-,-,-,-,-,-,-,-,-,-
AGAUNTZA,1988-08-26,0.151,0.278,-,0.278,-,-,-,-,-,-,-,-,-,-,-
AGAUNTZA,1988-08-27,0.137,0.218,-,0.218,-,-,-,-,-,-,-,-,-,-,-
AGAUNTZA,1988-08-28,0.122,0.162,-,0.162,-,-,-,-,-,-,-,-,-,-,-
AGAUNTZA,1988-08-29,0.121,0.158,-,0.158,-,-,-,-,-,-,-,-,-,-,-
AGAUNTZA,1988-08-30,0.129,0.188,-,0.188,-,-,-,-,-,-,-,-,-,-,-
AGAUNTZA,1988-08-31,0.126,0.176,-,0.176,-,-,-,-,-,-,-,-,-,-,-
AGAUNTZA,1988-09-01,0.136,0.247,-,0.247,-,-,-,-,-,-,-,-,-,-,-
AGAUNTZA,1988-09-02,0.248,0.963,-,0.963,-,-,-,-,-,-,-,-,-,-,-
AGAUNTZA,1988-09-03,0.186,0.473,-,0.473,-,-,-,-,-,-,-,-,-,-,-
AGAUNTZA,1988-09-04,0.158,0.311,-,0.311,-,-,-,-,-,-,-,-,-,-,-
AGAUNTZA,1988-09-05,0.137,0.219,-,0.219,-,-,-,-,-,-,-,-,-,-,-
AGAUNTZA,1988-09-06,0.12,0.158,-,0.158,-,-,-,-,-,-,-,-,-,-,-
AGAUNTZA,1988-09-07,0.11,0.125,-,0.125,-,-,-,-,-,-,-,-,-,-,-
AGAUNTZA,1988-09-08,0.1,0.099,-,0.099,-,-,-,-,-,-,-,-,-,-,-
AGAUNTZA,1988-09-09,0.098,0.094,-,0.094,-,-,-,-,-,-,-,-,-,-,-
AGAUNTZA,1988-09-10,0.097,0.091,-,0.091,-,-,-,-,-,-,-,-,-,-,-
AGAUNTZA,1988-09-11,0.098,0.095,-,0.095,-,-,-,-,-,-,-,-,-,-,-
AGAUNTZA,1988-09-12,0.095,0.086,-,0.086,-,-,-,-,-,-,-,-,-,-,-
AGAUNTZA,1988-09-13,0.095,0.087,-,0.087,-,-,-,-,-,-,-,-,-,-,-
AGAUNTZA,1988-09-14,0.238,1.268,-,1.268,-,-,-,-,-,-,-,-,-,-,-
AGAUNTZA,1988-09-15,0.252,1.024,-,1.024,-,-,-,-,-,-,-,-,-,-,-
AGAUNTZA,1988-09-16,0.517,6.026,-,6.026,-,-,-,-,-,-,-,-,-,-,-
AGAUNTZA,1988-09-17,0.335,2.045,-,2.045,-,-,-,-,-,-,-,-,-,-,-
AGAUNTZA,1988-09-18,0.282,1.339,-,1.339,-,-,-,-,-,-,-,-,-,-,-
AGAUNTZA,1988-09-19,0.226,0.763,-,0.763,-,-,-,-,-,-,-,-,-,-,-
AGAUNTZA,1988-09-20,0.204,0.586,-,0.586,-,-,-,-,-,-,-,-,-,-,-
AGAUNTZA,1988-09-21,0.187,0.471,-,0.471,-,-,-,-,-,-,-,-,-,-,-
AGAUNTZA,1988-09-22,0.172,0.386,-,0.386,-,-,-,-,-,-,-,-,-,-,-
AGAUNTZA,1988-09-23,0.158,0.313,-,0.313,-,-,-,-,-,-,-,-,-,-,-
AGAUNTZA,1988-09-24,0.144,0.245,-,0.245,-,-,-,-,-,-,-,-,-,-,-
AGAUNTZA,1988-09-25,0.138,0.22,-,0.22,-,-,-,-,-,-,-,-,-,-,-
AGAUNTZA,1988-09-26,0.124,0.173,-,0.173,-,-,-,-,-,-,-,-,-,-,-
AGAUNTZA,1988-09-27,0.112,0.131,-,0.131,-,-,-,-,-,-,-,-,-,-,-
AGAUNTZA,1988-09-28,0.102,0.104,-,0.104,-,-,-,-,-,-,-,-,-,-,-
AGAUNTZA,1988-09-29,0.096,0.09,-,0.09,-,-,-,-,-,-,-,-,-,-,-
AGAUNTZA,1988-09-30,0.099,0.096,-,0.096,-,-,-,-,-,-,-,-,-,-,-
AIXOLA,1987-10-01,0.06,0.027,-,0.027,-,-,-,-,-,-,-,-,-,-,-
AIXOLA,1987-10-02,0.072,0.038,-,0.038,-,-,-,-,-,-,-,-,-,-,-
AIXOLA,1987-10-03,0.078,0.049,-,0.049,-,-,-,-,-,-,-,-,-,-,-
AIXOLA,1987-10-04,0.061,0.028,-,0.028,-,-,-,-,-,-,-,-,-,-,-
AIXOLA,1987-10-05,0.101,0.094,-,0.094,-,-,-,-,-,-,-,-,-,-,-
AIXOLA,1987-10-06,0.089,0.056,-,0.056,-,-,-,-,-,-,-,-,-,-,-
AIXOLA,1987-10-07,0.067,0.03,-,0.03,-,-,-,-,-,-,-,-,-,-,-
AIXOLA,1987-10-08,0.064,0.029,-,0.029,-,-,-,-,-,-,-,-,-,-,-
AIXOLA,1987-10-09,0.064,0.029,-,0.029,-,-,-,-,-,-,-,-,-,-,-
AIXOLA,1987-10-10,0.067,0.033,-,0.033,-,-,-,-,-,-,-,-,-,-,-
AIXOLA,1987-10-11,0.1,0.072,-,0.072,-,-,-,-,-,-,-,-,-,-,-
AIXOLA,1987-10-12,0.085,0.046,-,0.046,-,-,-,-,-,-,-,-,-,-,-
AIXOLA,1987-10-13,0.079,0.037,-,0.037,-,-,-,-,-,-,-,-,-,-,-
AIXOLA,1987-10-14,0.072,0.032,-,0.032,-,-,-,-,-,-,-,-,-,-,-
AIXOLA,1987-10-15,0.071,0.032,-,0.032,-,-,-,-,-,-,-,-,-,-,-
AIXOLA,1987-10-16,0.075,0.034,-,0.034,-,-,-,-,-,-,-,-,-,-,-
AIXOLA,1987-10-17,0.072,0.033,-,0.033,-,-,-,-,-,-,-,-,-,-,-
AIXOLA,1987-10-18,0.073,0.033,-,0.033,-,-,-,-,-,-,-,-,-,-,-
AIXOLA,1987-10-19,0.072,0.032,-,0.032,-,-,-,-,-,-,-,-,-,-,-
AIXOLA,1987-10-20,0.072,0.032,-,0.032,-,-,-,-,-,-,-,-,-,-,-
AIXOLA,1987-10-21,0.071,0.032,-,0.032,-,-,-,-,-,-,-,-,-,-,-
AIXOLA,1987-10-22,0.07,0.032,-,0.032,-,-,-,-,-,-,-,-,-,-,-
AIXOLA,1987-10-23,0.06,0.027,-,0.027,-,-,-,-,-,-,-,-,-,-,-
AIXOLA,1987-10-24,0.06,0.027,-,0.027,-,-,-,-,-,-,-,-,-,-,-
AIXOLA,1987-10-25,0.063,0.029,-,0.029,-,-,-,-,-,-,-,-,-,-,-
AIXOLA,1987-10-26,0.062,0.028,-,0.028,-,-,-,-,-,-,-,-,-,-,-
AIXOLA,1987-10-27,0.062,0.029,-,0.029,-,-,-,-,-,-,-,-,-,-,-
AIXOLA,1987-10-28,0.127,0.139,-,0.139,-,-,-,-,-,-,-,-,-,-,-
AIXOLA,1987-10-29,0.078,0.037,-,0.037,-,-,-,-,-,-,-,-,-,-,-
AIXOLA,1987-10-30,0.069,0.031,-,0.031,-,-,-,-,-,-,-,-,-,-,-
AIXOLA,1987-10-31,0.066,0.03,-,0.03,-,-,-,-,-,-,-,-,-,-,-
AIXOLA,1987-11-01,0.064,0.029,-,0.029,-,-,-,-,-,-,-,-,-,-,-
AIXOLA,1987-11-02,0.063,0.029,-,0.029,-,-,-,-,-,-,-,-,-,-,-
AIXOLA,1987-11-03,0.063,0.029,-,0.029,-,-,-,-,-,-,-,-,-,-,-
AIXOLA,1987-11-04,0.064,0.029,-,0.029,-,-,-,-,-,-,-,-,-,-,-